| time (UTC) | temp C | wind direction | speed KPH | gust KPH | rain 1hr cm | rain 24hr cm | rain mn cm | humidity % | barometer mb |
| 20260903134601 | 17 | 51 | 3.2 | 6.4 | 0.00 | 0.00 | 0.00 | 83 | 1014.6 |
| 20260903133103 | 16 | 51 | 1.6 | 6.4 | 0.00 | 0.00 | 0.00 | 84 | 1014.5 |
| 20260903131607 | 17 | 51 | 1.6 | 4.8 | 0.00 | 0.00 | 0.00 | 84 | 1014.4 |
| 20260903130056 | 16 | 51 | 0.0 | 4.8 | 0.00 | 0.00 | 0.00 | 83 | 1014.5 |
| 20260903124600 | 16 | 51 | 0.0 | 4.8 | 0.00 | 0.00 | 0.00 | 83 | 1014.4 |
| 20260903123059 | 17 | 51 | 1.6 | 4.8 | 0.00 | 0.00 | 0.00 | 83 | 1014.4 |
| 20260903121555 | 17 | 51 | 1.6 | 6.4 | 0.00 | 0.00 | 0.00 | 83 | 1014.4 |
| 20260903114603 | 17 | 42 | 3.2 | 4.8 | 0.00 | 0.00 | 0.00 | 84 | 1014.5 |
| 20260903113058 | 16 | 42 | 4.8 | 6.4 | 0.00 | 0.00 | 0.00 | 84 | 1014.4 |
| 20260903111556 | 16 | 41 | 3.2 | 4.8 | 0.00 | 0.00 | 0.00 | 83 | 1014.5 |
| 20260903110100 | 17 | 44 | 4.8 | 6.4 | 0.00 | 0.00 | 0.00 | 83 | 1014.5 |
| 20260903104557 | 17 | 57 | 4.8 | 6.4 | 0.00 | 0.00 | 0.00 | 83 | 1014.7 |
| 20260903103059 | 17 | 63 | 4.8 | 6.4 | 0.00 | 0.00 | 0.00 | 83 | 1014.7 |
| 20260903101602 | 17 | 80 | 3.2 | 4.8 | 0.00 | 0.00 | 0.00 | 82 | 1014.9 |
| 20260903100056 | 17 | 84 | 3.2 | 4.8 | 0.00 | 0.00 | 0.00 | 82 | 1015.0 |
| 20260903094634 | 17 | 85 | 1.6 | 4.8 | 0.00 | 0.00 | 0.00 | 82 | 1015.2 |
| 20260903093054 | 17 | 86 | 1.6 | 6.4 | 0.00 | 0.00 | 0.00 | 83 | 1015.3 |
| 20260903091601 | 17 | 86 | 1.6 | 4.8 | 0.00 | 0.00 | 0.00 | 82 | 1015.4 |
| 20260903090052 | 18 | 86 | 3.2 | 6.4 | 0.00 | 0.00 | 0.00 | 82 | 1015.3 |
| 20260903084600 | 18 | 88 | 4.8 | 9.7 | 0.00 | 0.00 | 0.00 | 82 | 1015.4 |
| 20260903083057 | 18 | 109 | 3.2 | 6.4 | 0.00 | 0.00 | 0.00 | 82 | 1015.5 |
| 20260903081555 | 18 | 112 | 1.6 | 4.8 | 0.00 | 0.00 | 0.00 | 82 | 1015.5 |
| 20260903080101 | 18 | 112 | 1.6 | 9.7 | 0.00 | 0.00 | 0.00 | 82 | 1015.5 |
| 20260903074607 | 18 | 208 | 1.6 | 4.8 | 0.00 | 0.00 | 0.00 | 82 | 1015.6 |
| 20260903073102 | 18 | 230 | 1.6 | 3.2 | 0.00 | 0.00 | 0.00 | 82 | 1015.5 |
| 20260903071602 | 18 | 231 | 1.6 | 4.8 | 0.00 | 0.00 | 0.00 | 82 | 1015.6 |
| 20260903070057 | 18 | 0 | 0.0 | 3.2 | 0.00 | 0.00 | 0.00 | 81 | 1015.5 |
| 20260903064608 | 18 | 233 | 1.6 | 3.2 | 0.00 | 0.00 | 0.00 | 81 | 1015.7 |
| 20260903063102 | 18 | 234 | 0.0 | 3.2 | 0.00 | 0.00 | 0.00 | 81 | 1015.6 |
| 20260903061601 | 18 | 0 | 0.0 | 3.2 | 0.00 | 0.00 | 0.00 | 81 | 1015.7 |
| 20260903060105 | 19 | 234 | 0.0 | 3.2 | 0.00 | 0.00 | 0.00 | 80 | 1015.8 |
| 20260903054613 | 18 | 236 | 0.0 | 1.6 | 0.00 | 0.00 | 0.00 | 80 | 1015.9 |
| 20260903053107 | 18 | 0 | 0.0 | 1.6 | 0.00 | 0.00 | 0.00 | 81 | 1016.0 |
| 20260903051604 | 18 | 0 | 0.0 | 0.0 | 0.00 | 0.00 | 0.00 | 80 | 1016.0 |
| 20260903050106 | 18 | 0 | 0.0 | 0.0 | 0.00 | 0.00 | 0.00 | 80 | 1016.0 |
| 20260903044602 | 19 | 0 | 0.0 | 3.2 | 0.00 | 0.00 | 0.00 | 81 | 1015.9 |
| 20260903043105 | 18 | 0 | 0.0 | 0.0 | 0.00 | 0.00 | 0.00 | 81 | 1015.9 |
| 20260903041609 | 18 | 0 | 0.0 | 0.0 | 0.00 | 0.00 | 0.00 | 79 | 1015.8 |
| 20260903040126 | 19 | 0 | 0.0 | 0.0 | 0.00 | 0.00 | 0.00 | 79 | 1015.7 |
| 20260903034602 | 19 | 0 | 0.0 | 0.0 | 0.00 | 0.00 | 0.00 | 78 | 1015.5 |
| 20260903033106 | 20 | 0 | 0.0 | 1.6 | 0.00 | 0.00 | 0.00 | 80 | 1015.6 |
| 20260903031604 | 20 | 0 | 0.0 | 3.2 | 0.00 | 0.00 | 0.00 | 79 | 1015.3 |
| 20260903030058 | 20 | 0 | 0.0 | 3.2 | 0.00 | 0.00 | 0.00 | 79 | 1015.1 |
| 20260903024552 | 20 | 0 | 0.0 | 4.8 | 0.00 | 0.00 | 0.00 | 79 | 1015.1 |
| 20260903023103 | 20 | 236 | 0.0 | 4.8 | 0.00 | 0.00 | 0.00 | 79 | 1015.0 |
| 20260903021600 | 20 | 0 | 0.0 | 4.8 | 0.00 | 0.00 | 0.00 | 77 | 1015.0 |
| 20260903020058 | 21 | 238 | 1.6 | 11.3 | 0.00 | 0.00 | 0.00 | 75 | 1015.1 |
| 20260903014601 | 21 | 249 | 4.8 | 12.9 | 0.00 | 0.00 | 0.00 | 74 | 1014.9 |
| 20260903013055 | 21 | 269 | 6.4 | 17.7 | 0.00 | 0.00 | 0.00 | 73 | 1015.0 |
| 20260903011602 | 22 | 252 | 6.4 | 17.7 | 0.00 | 0.00 | 0.00 | 71 | 1014.8 |
| 20260903010105 | 23 | 221 | 6.4 | 14.5 | 0.00 | 0.00 | 0.00 | 69 | 1014.9 |
| 20260903004558 | 23 | 231 | 6.4 | 16.1 | 0.00 | 0.00 | 0.00 | 66 | 1015.0 |
| 20260903003104 | 22 | 232 | 8.0 | 17.7 | 0.00 | 0.00 | 0.00 | 68 | 1015.0 |
| 20260903001605 | 23 | 223 | 6.4 | 16.1 | 0.00 | 0.00 | 0.00 | 69 | 1015.0 |
| 20260903000059 | 23 | 260 | 4.8 | 17.7 | 0.00 | 0.00 | 0.00 | 68 | 1014.9 |
| 20260902234603 | 23 | 232 | 4.8 | 16.1 | 0.00 | 0.00 | 0.00 | 69 | 1015.1 |
| 20260902233052 | 23 | 242 | 8.0 | 17.7 | 0.00 | 0.00 | 0.00 | 68 | 1015.2 |
| 20260902231559 | 23 | 360 | 9.7 | 20.9 | 0.00 | 0.00 | 0.00 | 69 | 1015.3 |
| 20260902230116 | 23 | 256 | 6.4 | 17.7 | 0.00 | 0.00 | 0.00 | 69 | 1015.5 |
| 20260902224604 | 23 | 360 | 11.3 | 19.3 | 0.00 | 0.00 | 0.00 | 68 | 1015.6 |
| 20260902223058 | 23 | 360 | 11.3 | 19.3 | 0.00 | 0.00 | 0.00 | 67 | 1015.7 |
| 20260902221608 | 23 | 236 | 9.7 | 19.3 | 0.00 | 0.00 | 0.00 | 67 | 1015.9 |
| 20260902220104 | 24 | 248 | 8.0 | 20.9 | 0.00 | 0.00 | 0.00 | 68 | 1015.8 |
| 20260902214600 | 24 | 259 | 4.8 | 22.5 | 0.00 | 0.00 | 0.00 | 67 | 1015.9 |
| 20260902213055 | 23 | 223 | 9.7 | 20.9 | 0.00 | 0.00 | 0.00 | 69 | 1016.0 |
| 20260902211553 | 23 | 229 | 9.7 | 20.9 | 0.00 | 0.00 | 0.00 | 69 | 1016.0 |
| 20260902210121 | 23 | 247 | 11.3 | 24.1 | 0.00 | 0.00 | 0.00 | 69 | 1016.1 |
| 20260902204601 | 23 | 201 | 9.7 | 20.9 | 0.00 | 0.00 | 0.00 | 69 | 1016.1 |
| 20260902203107 | 23 | 259 | 8.0 | 20.9 | 0.00 | 0.00 | 0.00 | 69 | 1016.2 |
| 20260902201614 | 23 | 245 | 8.0 | 19.3 | 0.00 | 0.00 | 0.00 | 69 | 1016.3 |
| 20260902200107 | 23 | 256 | 9.7 | 19.3 | 0.00 | 0.00 | 0.00 | 69 | 1016.4 |
| 20260902194600 | 23 | 259 | 11.3 | 22.5 | 0.00 | 0.00 | 0.00 | 71 | 1016.5 |
| 20260902193100 | 23 | 217 | 8.0 | 22.5 | 0.00 | 0.00 | 0.00 | 69 | 1016.6 |
| 20260902191601 | 23 | 261 | 11.3 | 20.9 | 0.00 | 0.00 | 0.00 | 69 | 1016.8 |
| 20260902190125 | 24 | 360 | 8.0 | 19.3 | 0.00 | 0.00 | 0.00 | 69 | 1016.6 |
| 20260902184608 | 23 | 220 | 6.4 | 16.1 | 0.00 | 0.00 | 0.00 | 68 | 1016.7 |
| 20260902183110 | 24 | 221 | 6.4 | 19.3 | 0.00 | 0.00 | 0.00 | 67 | 1016.8 |
| 20260902181608 | 24 | 360 | 6.4 | 16.1 | 0.00 | 0.00 | 0.00 | 69 | 1017.1 |
| 20260902174600 | 23 | 233 | 8.0 | 16.1 | 0.00 | 0.00 | 0.00 | 69 | 1017.1 |
| 20260902173056 | 24 | 190 | 3.2 | 16.1 | 0.00 | 0.00 | 0.00 | 67 | 1017.1 |
| 20260902171620 | 25 | 161 | 6.4 | 14.5 | 0.00 | 0.00 | 0.00 | 66 | 1016.9 |
| 20260902170059 | 25 | 182 | 1.6 | 9.7 | 0.00 | 0.00 | 0.00 | 67 | 1016.9 |
| 20260902164601 | 24 | 179 | 3.2 | 14.5 | 0.00 | 0.00 | 0.00 | 67 | 1017.0 |
| 20260902163103 | 25 | 236 | 4.8 | 12.9 | 0.00 | 0.00 | 0.00 | 64 | 1017.0 |
| 20260902161603 | 23 | 196 | 4.8 | 11.3 | 0.00 | 0.00 | 0.00 | 67 | 1016.8 |
| 20260902160105 | 24 | 115 | 1.6 | 11.3 | 0.00 | 0.00 | 0.00 | 67 | 1016.8 |
| 20260902154604 | 22 | 60 | 1.6 | 12.9 | 0.00 | 0.00 | 0.00 | 73 | 1016.8 |
| 20260902153101 | 23 | 67 | 3.2 | 8.0 | 0.00 | 0.00 | 0.00 | 70 | 1016.7 |
| 20260902151603 | 22 | 78 | 3.2 | 9.7 | 0.00 | 0.00 | 0.00 | 73 | 1016.8 |
| 20260902150106 | 21 | 42 | 1.6 | 6.4 | 0.00 | 0.00 | 0.00 | 79 | 1016.7 |
| 20260902144602 | 19 | 36 | 1.6 | 4.8 | 0.00 | 0.00 | 0.00 | 83 | 1016.6 |
| 20260902143055 | 18 | 0 | 1.6 | 4.8 | 0.00 | 0.00 | 0.00 | 85 | 1016.7 |
| 20260902141601 | 18 | 0 | 0.0 | 4.8 | 0.00 | 0.00 | 0.00 | 85 | 1016.6 |
| 20260902140100 | 17 | 34 | 1.6 | 4.8 | 0.00 | 0.00 | 0.00 | 86 | 1016.3 |